Location: Le Petit-Vavre
(46.5081°N, 1.5239°E)
Time: 11:13:42
(UTC+00:00)

IDEASSAT - Visible Passes

Search period start: 24 September 2021 00:00
Search period end: 04 October 2021 00:00
Orbit: 518 x 536 km, 97.5° (Epoch: 23 September)

Date Brightness Start Highest point End Pass type
(mag) Time Alt. Az. Time Alt. Az. Time Alt. Az.
24 Sep ? 19:47:30 11° NNE 19:47:30 11° NNE 19:47:52 10° NNE visible
24 Sep ? 21:22:45 13° NNW 21:22:45 13° NNW 21:23:10 10° NNW visible
25 Sep ? 21:11:20 13° NNW 21:11:20 13° NNW 21:11:49 10° NNW visible
26 Sep ? 20:59:55 13° NNW 20:59:55 13° NNW 21:00:24 10° NNW visible
27 Sep ? 20:48:30 13° N 20:48:30 13° N 20:48:57 10° N visible
28 Sep ? 20:37:05 12° N 20:37:05 12° N 20:37:26 10° N visible
29 Sep ? 20:25:40 11° N 20:25:40 11° N 20:25:53 10° N visible
30 Sep ? 20:14:14 10° N 20:14:14 10° N 20:14:16 10° N visible
